FW8892 Weather Reports


Display with metric or nautical units.
time (UTC)temp
F
wind
direction
speed
MPH
gust
MPH
rain 1hr
in
rain 24hr
in
rain mn
in
humidity
%
barometer
mb
20260831163530 92 198 1.0 6.0 0.00 0.00 0.00 62 1020.9
20260831163056 92 272 2.0 7.0 0.00 0.00 0.00 59 1021.1
20260831162531 92 293 3.0 7.0 0.00 0.00 0.00 60 1021.0
20260831162029 92 304 2.0 7.0 0.00 0.00 0.00 62 1021.0
20260831161611 93 211 3.0 11.0 0.00 0.00 0.00 61 1021.0
20260831161033 92 261 4.0 11.0 0.00 0.00 0.00 61 1020.9
20260831160528 93 186 2.0 9.0 0.00 0.00 0.00 63 1020.9
20260831160050 93 261 2.0 9.0 0.00 0.00 0.00 63 1020.9
20260831155530 92 245 3.0 7.0 0.00 0.00 0.00 62 1020.9
20260831155031 92 310 3.0 7.0 0.00 0.00 0.00 64 1020.8
20260831154620 92 163 3.0 8.0 0.00 0.00 0.00 65 1020.8
20260831154032 92 0 1.0 12.0 0.00 0.00 0.00 64 1020.9
20260831153528 91 192 4.0 12.0 0.00 0.00 0.00 64 1020.9
20260831153057 91 187 3.0 9.0 0.00 0.00 0.00 65 1021.0
20260831152527 91 170 3.0 9.0 0.00 0.00 0.00 65 1020.9
20260831152030 91 190 1.0 7.0 0.00 0.00 0.00 66 1021.0
20260831151552 91 181 3.0 7.0 0.00 0.00 0.00 64 1020.9
20260831151030 91 212 2.0 7.0 0.00 0.00 0.00 64 1021.0
20260831150529 91 272 3.0 8.0 0.00 0.00 0.00 65 1020.9
20260831150059 91 241 3.0 8.0 0.00 0.00 0.00 66 1020.9
20260831145529 90 265 2.0 6.0 0.00 0.00 0.00 67 1020.9
20260831145028 90 299 2.0 7.0 0.00 0.00 0.00 68 1020.7
20260831144559 89 178 3.0 7.0 0.00 0.00 0.00 67 1020.7
20260831144027 89 219 3.0 7.0 0.00 0.00 0.00 67 1020.7
20260831143531 89 184 2.0 7.0 0.00 0.00 0.00 69 1020.6
20260831143052 89 241 3.0 7.0 0.00 0.00 0.00 68 1020.6
20260831142530 88 279 3.0 7.0 0.00 0.00 0.00 70 1020.6
20260831142030 88 149 2.0 6.0 0.00 0.00 0.00 69 1020.5
20260831141558 87 189 2.0 8.0 0.00 0.00 0.00 71 1020.6
20260831141028 87 164 2.0 8.0 0.00 0.00 0.00 72 1020.5
20260831140532 86 183 2.0 6.0 0.00 0.00 0.00 73 1020.5
20260831140055 86 253 2.0 6.0 0.00 0.00 0.00 73 1020.5
20260831135529 86 188 3.0 6.0 0.00 0.00 0.00 73 1020.5
20260831135031 85 168 1.0 5.0 0.00 0.00 0.00 75 1020.4
20260831134550 84 191 2.0 5.0 0.00 0.00 0.00 76 1020.5
20260831134029 84 131 1.0 9.0 0.00 0.00 0.00 78 1020.5
20260831133530 83 148 4.0 9.0 0.00 0.00 0.00 77 1020.4
20260831133100 83 168 2.0 7.0 0.00 0.00 0.00 79 1020.5
20260831132528 83 165 3.0 6.0 0.00 0.00 0.00 78 1020.5
20260831132028 82 209 1.0 6.0 0.00 0.00 0.00 81 1020.5
20260831131556 81 191 2.0 7.0 0.00 0.00 0.00 82 1020.4
20260831131028 80 144 2.0 7.0 0.00 0.00 0.00 83 1020.4
20260831130528 79 158 1.0 6.0 0.00 0.00 0.00 85 1020.3
20260831130050 79 204 2.0 6.0 0.00 0.00 0.00 86 1020.3
20260831125532 78 145 0.0 4.0 0.00 0.00 0.00 88 1020.3
20260831125032 77 173 1.0 4.0 0.00 0.00 0.00 89 1020.3
20260831124548 76 188 0.0 3.0 0.00 0.00 0.00 92 1020.1
20260831124031 75 138 0.0 3.0 0.00 0.00 0.00 94 1020.2
20260831123532 74 0 1.0 3.0 0.00 0.00 0.00 95 1020.2
20260831123057 73 150 0.0 2.0 0.00 0.00 0.00 97 1020.1
20260831122532 73 0 0.0 0.0 0.00 0.00 0.00 99 1020.1
20260831122029 73 0 0.0 0.0 0.00 0.00 0.00 99 1020.0
20260831121550 72 0 0.0 0.0 0.00 0.00 0.00 99 1020.0
20260831121029 71 0 0.0 0.0 0.00 0.00 0.00 99 1020.0
20260831120529 70 0 0.0 0.0 0.00 0.00 0.00 99 1020.0
20260831120054 69 0 0.0 0.0 0.00 0.00 0.00 98 1020.0
20260831115530 69 0 0.0 0.0 0.00 0.00 0.00 98 1020.0
20260831115030 69 0 0.0 0.0 0.00 0.00 0.00 98 1019.9
20260831114548 69 0 0.0 0.0 0.00 0.00 0.00 98 1019.9
20260831114031 69 0 0.0 0.0 0.00 0.00 0.00 97 1019.8
20260831113530 69 0 0.0 0.0 0.00 0.00 0.00 97 1019.8
20260831113054 69 0 0.0 0.0 0.00 0.00 0.00 97 1019.8
20260831112530 68 0 0.0 0.0 0.00 0.00 0.00 97 1019.7
20260831112029 69 0 0.0 0.0 0.00 0.00 0.00 97 1019.6
20260831111553 69 0 0.0 0.0 0.00 0.00 0.00 97 1019.8
20260831111030 69 0 0.0 0.0 0.00 0.00 0.00 97 1019.8
20260831110529 69 0 0.0 0.0 0.00 0.00 0.00 97 1019.7
20260831110049 69 0 0.0 0.0 0.00 0.00 0.00 98 1019.6
20260831105530 69 0 0.0 0.0 0.00 0.00 0.00 98 1019.5
20260831105030 69 0 0.0 0.0 0.00 0.00 0.00 97 1019.6
20260831104559 68 0 0.0 0.0 0.00 0.00 0.00 97 1019.6
20260831104030 69 0 0.0 0.0 0.00 0.00 0.00 97 1019.5
20260831103529 69 0 0.0 0.0 0.00 0.00 0.00 97 1019.5
20260831103108 68 0 0.0 0.0 0.00 0.00 0.00 97 1019.4
20260831102529 68 0 0.0 0.0 0.00 0.00 0.00 97 1019.4
20260831102029 68 0 0.0 0.0 0.00 0.00 0.00 97 1019.5
20260831101557 68 0 0.0 0.0 0.00 0.00 0.00 97 1019.4
20260831101030 68 0 0.0 0.0 0.00 0.00 0.00 97 1019.4
20260831100528 68 0 0.0 0.0 0.00 0.00 0.00 97 1019.2
20260831100100 69 0 0.0 0.0 0.00 0.00 0.00 97 1019.3
20260831095531 69 0 0.0 0.0 0.00 0.00 0.00 97 1019.0
20260831095029 69 0 0.0 0.0 0.00 0.00 0.00 97 1019.1
20260831094556 69 0 0.0 0.0 0.00 0.00 0.00 97 1019.0
20260831094030 69 0 0.0 0.0 0.00 0.00 0.00 97 1018.9
20260831093528 69 0 0.0 0.0 0.00 0.00 0.00 97 1018.9
20260831093057 69 0 0.0 0.0 0.00 0.00 0.00 97 1018.9
20260831092527 69 0 0.0 0.0 0.00 0.00 0.00 97 1018.9
20260831092029 69 0 0.0 0.0 0.00 0.00 0.00 97 1018.9
20260831091613 69 0 0.0 0.0 0.00 0.00 0.00 96 1018.9
20260831091030 69 0 0.0 0.0 0.00 0.00 0.00 96 1018.8
20260831090530 69 0 0.0 0.0 0.00 0.00 0.00 96 1018.8
20260831090100 69 0 0.0 0.0 0.00 0.00 0.00 96 1018.7
20260831085529 69 0 0.0 0.0 0.00 0.00 0.00 96 1018.7
20260831085031 69 0 0.0 0.0 0.00 0.00 0.00 96 1018.7
20260831084559 69 0 0.0 0.0 0.00 0.00 0.00 96 1018.8
20260831084031 69 0 0.0 0.0 0.00 0.00 0.00 96 1018.7
20260831083530 69 0 0.0 0.0 0.00 0.00 0.00 96 1018.7
20260831083051 70 0 0.0 0.0 0.00 0.00 0.00 96 1018.6
20260831082529 70 0 0.0 0.0 0.00 0.00 0.00 96 1018.5
20260831082029 70 0 0.0 0.0 0.00 0.00 0.00 96 1018.5
20260831081550 70 0 0.0 0.0 0.00 0.00 0.00 96 1018.4
20260831081031 70 0 0.0 0.0 0.00 0.00 0.00 96 1018.3
20260831080530 70 0 0.0 0.0 0.00 0.00 0.00 96 1018.4
20260831075530 70 0 0.0 0.0 0.00 0.00 0.00 96 1018.5
20260831075029 70 0 0.0 0.0 0.00 0.00 0.00 96 1018.4
20260831074559 70 0 0.0 0.0 0.00 0.00 0.00 96 1018.5
20260831074030 70 0 0.0 0.0 0.00 0.00 0.00 96 1018.4
20260831073530 70 0 0.0 0.0 0.00 0.00 0.00 95 1018.4
20260831073049 70 0 0.0 0.0 0.00 0.00 0.00 95 1018.5
20260831072531 70 0 0.0 0.0 0.00 0.00 0.00 95 1018.5
20260831072032 70 0 0.0 0.0 0.00 0.00 0.00 95 1018.6
20260831071600 71 0 0.0 0.0 0.00 0.00 0.00 95 1018.6
20260831071029 71 0 0.0 0.0 0.00 0.00 0.00 95 1018.7
20260831070529 71 0 0.0 0.0 0.00 0.00 0.00 95 1018.6
20260831065530 71 0 0.0 0.0 0.00 0.00 0.00 95 1018.7
20260831065028 71 0 0.0 0.0 0.00 0.00 0.00 95 1018.7
20260831064557 71 0 0.0 0.0 0.00 0.00 0.00 95 1018.7
20260831064029 71 0 0.0 0.0 0.00 0.00 0.00 95 1018.7
20260831063530 72 0 0.0 0.0 0.00 0.00 0.00 95 1018.7
20260831063058 72 0 0.0 0.0 0.00 0.00 0.00 95 1018.8
20260831062530 72 0 0.0 0.0 0.00 0.00 0.00 95 1018.9
20260831062029 72 0 0.0 0.0 0.00 0.00 0.00 95 1018.9
20260831061557 72 0 0.0 0.0 0.00 0.00 0.00 95 1018.9
20260831061031 72 0 0.0 0.0 0.00 0.00 0.00 95 1018.9
20260831060529 72 0 0.0 0.0 0.00 0.00 0.00 95 1018.9
20260831060101 72 0 0.0 0.0 0.00 0.00 0.00 95 1018.8
20260831055528 72 0 0.0 0.0 0.00 0.00 0.00 95 1018.8
20260831055030 72 0 0.0 0.0 0.00 0.00 0.00 94 1018.9
20260831054606 72 0 0.0 0.0 0.00 0.00 0.00 94 1018.8
20260831054030 72 0 0.0 0.0 0.00 0.00 0.00 94 1018.7
20260831053530 72 0 0.0 0.0 0.00 0.00 0.00 94 1018.8
20260831053100 73 0 0.0 0.0 0.00 0.00 0.00 94 1018.7
20260831052527 73 0 0.0 0.0 0.00 0.00 0.00 94 1018.8
20260831052029 73 0 0.0 0.0 0.00 0.00 0.00 94 1018.8
20260831051553 73 0 0.0 0.0 0.00 0.00 0.00 94 1018.9
20260831051029 73 0 0.0 0.0 0.00 0.00 0.00 94 1018.9
20260831050527 73 0 0.0 0.0 0.00 0.00 0.00 93 1018.8
20260831050126 73 0 0.0 0.0 0.00 0.00 0.00 94 1018.7
20260831045530 73 0 0.0 0.0 0.00 0.00 0.00 93 1018.7
20260831045030 73 0 0.0 0.0 0.00 0.00 0.00 93 1018.7
20260831044550 73 0 0.0 0.0 0.00 0.00 0.00 93 1018.8
20260831044029 73 0 0.0 0.0 0.00 0.00 0.00 93 1018.8
20260831043528 73 0 0.0 0.0 0.00 0.00 0.00 93 1018.8
20260831043047 73 0 0.0 1.0 0.00 0.00 0.00 93 1018.8
20260831042531 73 0 0.0 1.0 0.00 0.00 0.00 93 1018.8
20260831042027 73 0 0.0 1.0 0.00 0.00 0.00 92 1018.9
20260831041615 74 0 0.0 0.0 0.00 0.00 0.00 92 1018.8
20260831041030 74 0 0.0 0.0 0.00 0.00 0.00 92 1018.8
20260831040530 74 0 0.0 0.0 0.00 0.00 0.00 92 1018.9
20260831040048 74 0 0.0 0.0 0.00 0.00 0.00 91 1018.9
20260831035527 74 0 0.0 0.0 0.00 0.00 0.00 91 1018.9
20260831035029 74 0 0.0 0.0 0.00 0.00 0.00 91 1018.8
20260831034547 74 0 0.0 0.0 0.00 0.00 0.00 91 1018.9
20260831034031 75 0 0.0 0.0 0.00 0.00 0.00 91 1018.9
20260831033528 75 0 0.0 0.0 0.00 0.00 0.00 91 1018.9
20260831033057 75 0 0.0 0.0 0.00 0.00 0.00 91 1018.9
20260831032530 75 0 0.0 0.0 0.00 0.00 0.00 90 1018.9
20260831032028 75 0 0.0 0.0 0.00 0.00 0.00 90 1019.0
20260831031600 75 0 0.0 0.0 0.00 0.00 0.00 91 1018.9
20260831031028 75 0 0.0 0.0 0.00 0.00 0.00 90 1018.9
20260831030533 75 0 0.0 0.0 0.00 0.00 0.00 89 1018.9
20260831030048 75 0 0.0 0.0 0.00 0.00 0.00 89 1018.8
20260831025529 76 0 0.0 0.0 0.00 0.00 0.00 89 1018.9
20260831025029 76 0 0.0 0.0 0.00 0.00 0.00 88 1018.8
20260831024553 76 0 0.0 0.0 0.00 0.00 0.00 89 1018.8
20260831024029 76 0 0.0 0.0 0.00 0.00 0.00 89 1018.7
20260831023529 76 0 0.0 0.0 0.00 0.00 0.00 88 1018.8
20260831023056 76 0 0.0 0.0 0.00 0.00 0.00 88 1018.7
20260831022530 77 0 0.0 0.0 0.00 0.00 0.00 88 1018.8
20260831022028 77 0 0.0 0.0 0.00 0.00 0.00 88 1018.7
20260831021552 77 0 0.0 0.0 0.00 0.00 0.00 87 1018.7
20260831021031 77 0 0.0 0.0 0.00 0.00 0.00 87 1018.6
20260831020531 77 0 0.0 0.0 0.00 0.00 0.00 87 1018.5
20260831020049 77 0 0.0 0.0 0.00 0.00 0.00 86 1018.5
20260831015531 77 0 0.0 0.0 0.00 0.00 0.00 85 1018.5
20260831015028 78 0 0.0 0.0 0.00 0.00 0.00 86 1018.4
20260831014557 78 0 0.0 0.0 0.00 0.00 0.00 86 1018.4
20260831014029 78 0 0.0 0.0 0.00 0.00 0.00 85 1018.3
20260831013532 78 0 0.0 0.0 0.00 0.00 0.00 84 1018.2
20260831013050 78 0 0.0 0.0 0.00 0.00 0.00 84 1018.2
20260831012529 79 0 0.0 0.0 0.00 0.00 0.00 83 1018.1
20260831012030 79 0 0.0 0.0 0.00 0.00 0.00 83 1018.1
20260831011554 79 0 0.0 0.0 0.00 0.00 0.00 82 1018.0
20260831011028 80 0 0.0 0.0 0.00 0.00 0.00 82 1018.0
20260831010531 80 0 0.0 0.0 0.00 0.00 0.00 80 1018.0
20260831010055 81 0 0.0 0.0 0.00 0.00 0.00 80 1018.0
20260831005530 81 0 0.0 0.0 0.00 0.00 0.00 80 1017.9
20260831005028 82 0 0.0 0.0 0.00 0.00 0.00 78 1017.9
20260831004600 82 0 0.0 0.0 0.00 0.00 0.00 78 1017.9
20260831004031 82 0 0.0 0.0 0.00 0.00 0.00 77 1017.8
20260831003530 83 0 0.0 0.0 0.00 0.00 0.00 76 1017.9
20260831003053 84 0 0.0 0.0 0.00 0.00 0.00 76 1017.8
20260831002529 84 0 0.0 0.0 0.00 0.00 0.00 75 1017.8
20260831002029 85 0 0.0 0.0 0.00 0.00 0.00 74 1017.7
20260831001549 85 0 0.0 0.0 0.00 0.00 0.00 73 1017.8
20260831001030 85 0 0.0 0.0 0.00 0.00 0.00 70 1017.8
20260831000528 86 0 0.0 0.0 0.00 0.00 0.00 69 1017.9
20260831000105 86 0 0.0 2.0 0.00 0.00 0.00 69 1018.0
20260830235529 87 0 0.0 2.0 0.00 0.00 0.00 68 1018.0
20260830235029 87 0 0.0 2.0 0.00 0.00 0.00 67 1017.9
20260830234603 87 0 0.0 2.0 0.00 0.00 0.00 67 1017.9
20260830234038 88 236 0.0 2.0 0.00 0.00 0.00 66 1017.8
20260830233529 88 0 0.0 3.0 0.00 0.00 0.00 65 1017.8
20260830233049 88 280 0.0 3.0 0.00 0.00 0.00 65 1017.8
20260830232530 89 227 0.0 3.0 0.00 0.00 0.00 64 1017.7
20260830232028 89 0 0.0 5.0 0.00 0.00 0.00 64 1017.8
20260830231548 89 0 1.0 6.0 0.00 0.00 0.00 63 1017.8
20260830231028 89 192 2.0 6.0 0.00 0.00 0.00 61 1017.8
20260830230529 89 197 1.0 5.0 0.00 0.00 0.00 62 1017.8
20260830230103 89 0 1.0 6.0 0.00 0.00 0.00 62 1017.7
20260830225530 90 212 2.0 6.0 0.00 0.00 0.00 61 1017.6
20260830225037 90 172 2.0 6.0 0.00 0.00 0.00 61 1017.7
20260830224558 90 278 1.0 5.0 0.00 0.00 0.00 61 1017.6
20260830224031 90 221 1.0 9.0 0.00 0.00 0.00 59 1017.6
20260830223529 91 246 2.0 9.0 0.00 0.00 0.00 59 1017.7
20260830223100 91 213 4.0 9.0 0.00 0.00 0.00 59 1017.6
20260830222529 91 194 3.0 6.0 0.00 0.00 0.00 59 1017.6
20260830222029 91 213 2.0 4.0 0.00 0.00 0.00 59 1017.6
20260830221606 92 187 1.0 5.0 0.00 0.00 0.00 58 1017.6
20260830221030 92 215 2.0 6.0 0.00 0.00 0.00 54 1017.6
20260830220529 92 190 2.0 6.0 0.00 0.00 0.00 55 1017.7
20260830220101 92 206 0.0 8.0 0.00 0.00 0.00 58 1017.5
20260830215530 93 250 2.0 8.0 0.00 0.00 0.00 56 1017.5
20260830215033 93 295 2.0 7.0 0.00 0.00 0.00 56 1017.7
20260830214600 93 230 1.0 6.0 0.00 0.00 0.00 54 1017.6
20260830214030 94 0 0.0 6.0 0.00 0.00 0.00 55 1017.6
20260830213531 94 216 1.0 7.0 0.00 0.00 0.00 54 1017.6
20260830213052 94 304 2.0 7.0 0.00 0.00 0.00 55 1017.6
20260830212530 95 281 3.0 7.0 0.00 0.00 0.00 52 1017.6
20260830212030 95 279 1.0 5.0 0.00 0.00 0.00 53 1017.8
20260830211549 95 267 1.0 7.0 0.00 0.00 0.00 54 1017.7
20260830211030 95 258 3.0 10.0 0.00 0.00 0.00 53 1017.7
20260830210529 95 149 3.0 10.0 0.00 0.00 0.00 53 1017.6
20260830210103 95 219 2.0 9.0 0.00 0.00 0.00 55 1017.7
20260830205530 95 196 3.0 9.0 0.00 0.00 0.00 54 1017.7
20260830205031 95 115 2.0 7.0 0.00 0.00 0.00 53 1017.8
20260830204605 95 168 3.0 9.0 0.00 0.00 0.00 56 1017.9
20260830204028 95 141 4.0 9.0 0.00 0.00 0.00 57 1018.0
20260830203528 95 113 3.0 10.0 0.00 0.00 0.00 56 1018.0
20260830203056 95 195 3.0 10.0 0.00 0.00 0.00 55 1018.1
20260830202530 95 125 4.0 9.0 0.00 0.00 0.00 56 1018.0
20260830202030 94 185 4.0 8.0 0.00 0.00 0.00 56 1018.1
20260830201607 94 155 1.0 8.0 0.00 0.00 0.00 57 1018.1
20260830201032 95 188 3.0 8.0 0.00 0.00 0.00 55 1018.3
20260830200530 95 178 2.0 7.0 0.00 0.00 0.00 57 1018.4
20260830200111 94 241 2.0 7.0 0.00 0.00 0.00 57 1018.5
20260830195528 94 0 2.0 8.0 0.00 0.00 0.00 56 1018.5
20260830195029 94 132 4.0 8.0 0.00 0.00 0.00 58 1018.7
20260830194610 94 180 3.0 7.0 0.00 0.00 0.00 56 1018.8
20260830194030 95 178 2.0 12.0 0.00 0.00 0.00 54 1018.9
20260830193527 95 148 3.0 12.0 0.00 0.00 0.00 55 1018.8
20260830193106 95 160 4.0 11.0 0.00 0.00 0.00 57 1018.9
20260830192529 95 309 1.0 11.0 0.00 0.00 0.00 56 1018.9
20260830192028 95 113 5.0 11.0 0.00 0.00 0.00 55 1019.0
20260830191549 95 246 4.0 14.0 0.00 0.00 0.00 56 1019.1
20260830191028 95 133 3.0 14.0 0.00 0.00 0.00 57 1019.2
20260830190528 94 151 3.0 7.0 0.00 0.00 0.00 57 1019.3
20260830185535 94 207 4.0 8.0 0.00 0.00 0.00 61 1019.4
20260830185031 93 238 3.0 13.0 0.00 0.00 0.00 60 1019.6
20260830184554 93 240 5.0 13.0 0.00 0.00 0.00 59 1019.6
20260830184030 93 195 5.0 11.0 0.00 0.00 0.00 60 1019.7
20260830183530 93 200 4.0 9.0 0.00 0.00 0.00 62 1019.7
20260830183051 93 144 2.0 10.0 0.00 0.00 0.00 60 1019.7
20260830182530 93 166 3.0 10.0 0.00 0.00 0.00 62 1019.8
20260830182031 92 171 2.0 10.0 0.00 0.00 0.00 63 1019.8
20260830181600 91 240 4.0 11.0 0.00 0.00 0.00 62 1020.0
20260830181029 91 242 2.0 11.0 0.00 0.00 0.00 62 1020.0
20260830180529 91 239 2.0 9.0 0.00 0.00 0.00 61 1019.9
20260830180104 92 222 4.0 9.0 0.00 0.00 0.00 62 1019.9
20260830175530 92 148 3.0 10.0 0.00 0.00 0.00 62 1019.9
20260830175030 92 119 4.0 12.0 0.00 0.00 0.00 63 1020.0
20260830174554 92 180 4.0 12.0 0.00 0.00 0.00 63 1020.1
20260830174029 92 148 4.0 13.0 0.00 0.00 0.00 62 1020.2
20260830173529 91 131 4.0 13.0 0.00 0.00 0.00 65 1020.1
20260830173113 91 231 4.0 9.0 0.00 0.00 0.00 64 1020.1
20260830172529 91 184 4.0 11.0 0.00 0.00 0.00 64 1020.2
20260830172031 91 142 4.0 11.0 0.00 0.00 0.00 65 1020.1
20260830171549 91 199 2.0 9.0 0.00 0.00 0.00 64 1020.3
20260830171030 91 171 4.0 10.0 0.00 0.00 0.00 65 1020.3
20260830170529 91 179 4.0 10.0 0.00 0.00 0.00 64 1020.4
20260830165533 91 209 4.0 10.0 0.00 0.00 0.00 65 1020.4
20260830165031 91 216 4.0 10.0 0.00 0.00 0.00 64 1020.4
20260830164601 92 207 4.0 10.0 0.00 0.00 0.00 64 1020.4
20260830164029 92 237 2.0 10.0 0.00 0.00 0.00 66 1020.5